This demonstration page uses our WeatherBlox Daily Observations layout. Learn more.

Left ArrowRight Arrow

Hourly Observations for January 30, 2018

Temp ( °F °C ) Dew Point ( °F °C ) Humidity (%) Winds ( mph kmh ) Pressure ( in mb ) Visibility ( mi km ) Precip ( " mm )
12:53 am 00:53 Clear 30 -1.1 9 -12.8 41 41 SE 3 6 30.38 1029 10 16 0.00 0.00
1:53 am 01:53 Clear 34 1.1 11 -11.7 38 38 SE 9 15 30.36 1028 10 16 0.00 0.00
2:53 am 02:53 Clear 30 -1.1 10 -12.2 43 43 E 3 6 30.36 1028 10 16 0.00 0.00
3:53 am 03:53 Clear 25 -3.9 9 -12.8 50 50 NNE 3 6 30.35 1028 10 16 0.00 0.00
4:53 am 04:53 Clear 24 -4.4 9 -12.8 52 52 NNE 6 9 30.32 1027 10 16 0.00 0.00
5:53 am 05:53 Clear 24 -4.4 8 -13.3 50 50 NNE 3 6 30.30 1026 10 16 0.00 0.00
6:53 am 06:53 Clear 22 -5.6 8 -13.3 55 55 N 5 7 30.33 1027 10 16 0.00 0.00
7:53 am 07:53 Sunny 22 -5.6 8 -13.3 55 55 N 5 7 30.34 1027 10 16 0.00 0.00
8:53 am 08:53 Sunny 33 0.6 11 -11.7 40 40 Calm 30.32 1027 10 16 0.00 0.00
9:53 am 09:53 Sunny 44 6.7 18 -7.8 35 35 SSE 6 9 30.31 1026 10 16 0.00 0.00
10:53 am 10:53 Sunny 52 11.1 19 -7.2 27 27 ESE 5 7 30.30 1026 10 16 0.00 0.00
11:53 am 11:53 Sunny 59 15 21 -6.1 23 23 SSE 7 11 30.25 1025 10 16 0.00 0.00
12:53 pm 12:53 Sunny 63 17.2 22 -5.6 21 21 S 6 9 30.20 1023 10 16 0.00 0.00
1:53 pm 13:53 Sunny 67 19.4 24 -4.4 20 20 VRB 7 11 30.14 1021 10 16 0.00 0.00
2:53 pm 14:53 Sunny 70 21.1 24 -4.4 18 18 S 12 19 30.11 1020 10 16 0.00 0.00
3:53 pm 15:53 Sunny 70 21.1 24 -4.4 18 18 SSW 8 13 30.09 1019 10 16 0.00 0.00
4:53 pm 16:53 Sunny 71 21.7 24 -4.4 17 17 S 8 13 30.07 1018 10 16 0.00 0.00
5:53 pm 17:53 Sunny 67 19.4 24 -4.4 20 20 S 9 15 30.06 1018 10 16 0.00 0.00
6:53 pm 18:53 Clear 56 13.3 22 -5.6 27 27 SSE 10 17 30.08 1019 10 16 0.00 0.00
7:53 pm 19:53 Clear 53 11.7 19 -7.2 26 26 SSE 12 19 30.08 1019 10 16 0.00 0.00
8:53 pm 20:53 Clear 48 8.9 18 -7.8 30 30 SSE 6 9 30.07 1018 10 16 0.00 0.00
9:53 pm 21:53 Clear 48 8.9 20 -6.7 33 33 SE 12 19 30.07 1018 10 16 0.00 0.00
10:53 pm 22:53 Clear 45 7.2 21 -6.1 39 39 SE 9 15 30.05 1018 10 16 0.00 0.00
11:53 pm 23:53 Clear 42 5.6 22 -5.6 45 45 ESE 9 15 30.03 1017 10 16 0.00 0.00

Powered by AerisWeather